Location: Unspecified
(0.0000°N, 0.0000°E)
Time: 05:52:56
(UTC+00:00)

AAUSAT CUBESAT 2 - Pass Details

Date: 22 July 2020
Orbit: 574 x 589 km, 97.5° (Epoch: 13 August)

Event Time Altitude Azimuth Distance (km) Brightness Sun altitude
Rises 05:13:07 0° 27° (NNE) 2,799 ? -12.5°
Reaches altitude 10° 05:15:26 10° 37° (NE) 1,900 ? -12.0°
Maximum altitude 05:19:09 33° 101° (E) 997 ? -11.1°
Drops below altitude 10° 05:22:51 10° 165° (SSE) 1,901 ? -10.2°
Sets 05:25:10 0° 175° (S) 2,800 ? -9.7°
